[[{"header":{"parameterUnit":"m.s-1","parameterCategory":1,"la1":30.2991,"la2":30.254,"lo1":-89.0895,"lo2":-89.0444,"dy":0.0017,"dx":0.0017,"nx":28,"ny":28,"refTime":"2023-09-01T03:00:00:Z","depth":0,"parameterNumber":2,"parameterNumberName":"U-component_of_WINDS"},"data":[0,0,0,0,0,0,0,0,0,0,0,0,0,0,0,0,0,0,0,0,0,0,0,0,0,0,0,0,0,0,0,0,0,0,0,0,0,0,0,0,0,0,0,0,0,0,0,0,0,0,0,0,0,0,0,0,0,0,-2.1504,-2.1504,0,-2.1516,-2.1516,-2.1516,-2.1429,-2.1427,-2.1425,-2.1422,-2.1437,-2.144,-2.1442,0,0,0,0,0,0,0,0,0,0,0,0,0,-2.1408,-2.141,-2.1504,-2.1504,-2.1504,-2.1516,-2.1516,-2.1516,-2.143,-2.1427,-2.1424,-2.1421,-2.1436,-2.1439,-2.1443,0,0,0,0,0,0,0,0,0,0,0,0,0,-2.1438,-2.1411,-2.1504,-2.1462,-2.1459,-2.1515,-2.1516,-2.1516,-2.1431,-2.1427,-2.1423,-2.142,-2.1435,-2.1439,-2.1443,-2.1541,0,0,-2.1455,-2.1457,0,0,0,0,0,0,0,0,-2.1436,-2.1441,-2.1468,-2.1465,-2.1461,-2.1467,-2.1487,-2.1524,-2.1431,-2.1441,-2.1422,-2.1418,-2.145,-2.1453,-2.1463,-2.1541,-2.1542,-2.1456,-2.1458,-2.146,-2.1461,0,0,0,0,0,0,0,-2.1434,-2.144,-2.1508,-2.1469,-2.1465,-2.1444,-2.1444,-2.1494,-2.1466,-2.144,-2.1434,-2.1436,-2.1448,-2.1459,-2.1463,-2.1542,-2.1455,-2.1459,-2.1461,-2.1463,-2.1698,-2.1702,0,0,0,0,0,0,-2.1437,-2.1439,-2.1508,-2.1509,-2.1439,-2.1448,-2.1449,-2.1469,-2.1465,-2.1461,-2.144,-2.1432,-2.1454,-2.1458,-2.1463,-2.1575,-2.146,-2.1463,-2.1466,-2.1694,-2.1699,-2.1703,0,0,0,0,0,0,-2.1436,-2.1444,-2.1508,-2.1472,-2.1479,-2.1454,-2.1478,-2.1471,-2.1483,-2.1465,-2.146,-2.1457,-2.1452,-2.1457,-2.1521,-2.1574,-2.1465,-2.1469,-2.169,-2.1696,-2.1701,-2.1801,0,0,0,0,0,0,-2.1433,-2.1444,-2.1481,-2.1474,-2.1481,-2.1566,-2.1481,-2.1474,-2.149,-2.148,-2.1479,-2.1476,-2.1449,-2.1516,-2.1525,-2.1578,-2.1472,-2.1685,-2.1692,-2.1699,-2.1793,-2.1809,-2.1824,0,0,0,0,0,-2.143,-2.151,-2.1483,-2.1492,-2.1526,-2.1569,-2.1573,-2.154,-2.1494,-2.1531,-2.1519,-2.1476,-2.1567,-2.1523,-2.1533,-2.1588,-2.1681,-2.169,-2.1699,-2.1786,-2.1806,-2.1823,0,0,0,0,0,0,-2.1526,-2.1508,-2.1479,-2.1558,-2.1566,-2.1554,-2.16,-2.1563,-2.1584,-2.1575,-2.1534,-2.1534,-2.1605,-2.1603,-2.1554,-2.168,-2.1616,-2.1627,-2.1679,-2.1698,-2.1713,-2.1712,-2.1475,0,0,0,0,0,-2.1556,-2.1592,-2.1575,-2.1647,-2.1651,-2.1625,-2.1643,-2.1616,-2.1622,-2.1625,-2.1618,-2.1626,-2.1656,-2.1677,-2.1704,-2.1792,-2.179,-2.1835,-2.185,-2.1863,-2.1873,-2.1916,-2.1936,-2.1732,-2.1731,-2.1731,0,0,-2.162,-2.1614,-2.1639,-2.1666,-2.1668,-2.1705,-2.1628,-2.1672,-2.1699,-2.1632,-2.1691,-2.1686,-2.1693,-2.1768,-2.1801,-2.1768,-2.1928,-2.1874,-2.1884,-2.1887,-2.1927,-2.1947,-2.1964,-2.1737,-2.1736,-2.1735,0,0,-2.1753,-2.1754,-2.1812,-2.1816,-2.1819,-2.1801,-2.1815,-2.1809,-2.1802,-2.186,-2.181,-2.1842,-2.1896,-2.1901,-2.1912,-2.2045,-2.2005,-2.2055,-2.2136,-2.2179,-2.2195,-2.2209,-2.2255,-2.2272,-2.2065,-2.2066,-2.2066,0,-2.1832,-2.1885,-2.1847,-2.1893,-2.1906,-2.1845,-2.1904,-2.1909,-2.1923,-2.1933,-2.1896,-2.1959,-2.196,-2.2035,-2.2067,-2.2078,-2.2092,-2.2055,-2.2196,-2.2209,-2.2222,-2.2265,-2.2283,-2.2071,-2.2071,-2.207,-2.207,0,-2.198,-2.2019,-2.2066,-2.2077,-2.2095,-2.2148,-2.2117,-2.214,-2.2112,-2.2097,-2.2156,-2.2154,-2.2178,-2.2194,-2.2168,-2.2265,-2.2244,-2.2203,-2.2137,-2.2248,-2.2287,-2.2304,-2.208,-2.2078,-2.2076,-2.2074,0,0,-2.2176,-2.2164,-2.2182,-2.2186,-2.2184,-2.2213,-2.2262,-2.2284,-2.2304,-2.2315,-2.2354,-2.24,-2.236,-2.2371,-2.2345,-2.2384,-2.2487,-2.2336,-2.2336,-2.2363,-2.2591,-2.2621,-2.2641,-2.2461,-2.2464,-2.2466,-2.259,0,-2.2305,-2.2387,-2.2353,-2.2438,-2.2471,-2.2413,-2.2456,-2.246,-2.2447,-2.2474,-2.246,-2.2492,-2.2438,-2.2444,-2.248,-2.2467,-2.2532,-2.2458,-2.2496,-2.2498,-2.2495,-2.2662,-2.2695,-2.2812,-2.2605,-2.2608,-2.261,0,-2.2467,-2.2482,-2.257,-2.256,-2.2572,-2.2611,-2.2627,-2.2654,-2.2657,-2.2645,-2.2656,-2.2621,-2.2668,-2.2603,-2.2667,-2.2617,-2.2631,-2.2627,-2.2631,-2.2632,-2.256,-2.2667,-2.2849,-2.2865,-2.2634,-2.2632,-2.2631,0,-2.2599,-2.2641,-2.2698,-2.2703,-2.2694,-2.2722,-2.2719,-2.2718,-2.2733,-2.2747,-2.2756,-2.2777,-2.2788,-2.2805,-2.2776,-2.2732,-2.2843,-2.2777,-2.2834,-2.2835,-2.2859,-2.2858,-2.3044,-2.2871,-2.2871,-2.287,-2.287,0,-2.2745,-2.2801,-2.2756,-2.2791,-2.2851,-2.2812,-2.2872,-2.2864,-2.2863,-2.2895,-2.2847,-2.2879,-2.2839,-2.2866,-2.2844,-2.2899,-2.2905,-2.2896,-2.2889,-2.29,-2.2901,-2.2907,-2.2898,-2.2875,-2.2874,-2.2873,-2.2872,0,-2.2902,-2.2875,-2.2933,-2.2918,-2.2915,-2.296,-2.2947,-2.2979,-2.2962,-2.3004,-2.3011,-2.2985,-2.3015,-2.2987,-2.3017,-2.3002,-2.3074,-2.3057,-2.3073,-2.3067,-2.3125,-2.3119,-2.3321,-2.3345,-2.3158,-2.316,-2.3162,0,-2.2997,-2.3038,-2.3027,-2.3044,-2.3043,-2.3073,-2.3086,-2.3049,-2.3065,-2.307,-2.3101,-2.3126,-2.3144,-2.3194,-2.3178,-2.32,-2.3181,-2.325,-2.3184,-2.3192,-2.318,-2.3177,-2.318,-2.3264,-2.3266,-2.3268,-2.3269,0,-2.3168,-2.3151,-2.3172,-2.3188,-2.3205,-2.3217,-2.3224,-2.3241,-2.3202,-2.3223,-2.3252,-2.3266,-2.3294,-2.3319,-2.3335,-2.3333,-2.3295,-2.329,-2.3304,-2.3314,-2.3321,-2.3316,-2.3107,-2.3285,-2.3284,-2.3283,-2.3282,-2.3281,-2.3295,-2.3327,-2.3323,-2.3348,-2.3349,-2.3356,-2.3384,-2.337,-2.3393,-2.3411,-2.3388,-2.3423,-2.3423,-2.344,-2.3442,-2.3469,-2.344,-2.3461,-2.3466,-2.3471,-2.3478,-2.3318,-2.3472,-2.3472,-2.3471,-2.3471,-2.347,0,-2.3461,-2.3455,-2.3478,-2.3488,-2.3507,-2.3468,-2.3474,-2.3492,-2.3523,-2.3525,-2.3543,-2.3575,-2.3599,-2.3584,-2.3604,-2.3628,-2.3611,-2.3635,-2.3632,-2.3631,-2.3504,-2.3489,-2.3648,-2.3648,-2.3648,-2.3648,-2.3648,-2.3648,-2.355,-2.3601,-2.3584,-2.3636,-2.3629,-2.3661,-2.3668,-2.3674,-2.3675,-2.3712,-2.3731,-2.3721,-2.3716,-2.3735,-2.3754,-2.3749,-2.3758,-2.3788,-2.3777,-2.3658,-2.3641,-2.3624,-2.3609,-2.3791,-2.3791,-2.3901,-2.3902,-2.3903]},{"header":{"parameterUnit":"m.s-1","parameterCategory":1,"la1":30.2991,"la2":30.254,"lo1":-89.0895,"lo2":-89.0444,"dy":0.0017,"dx":0.0017,"nx":28,"ny":28,"refTime":"2023-09-01T03:00:00:Z","depth":0,"parameterNumber":3,"parameterNumberName":"V-component_of_WINDS"},"data":[0,0,0,0,0,0,0,0,0,0,0,0,0,0,0,0,0,0,0,0,0,0,0,0,0,0,0,0,0,0,0,0,0,0,0,0,0,0,0,0,0,0,0,0,0,0,0,0,0,0,0,0,0,0,0,0,0,0,-2.1761,-2.1761,0,-2.1767,-2.1767,-2.1767,-2.1759,-2.1759,-2.1759,-2.1758,-2.1763,-2.1764,-2.1764,0,0,0,0,0,0,0,0,0,0,0,0,0,-2.1737,-2.1738,-2.1761,-2.1761,-2.1761,-2.1767,-2.1767,-2.1767,-2.1759,-2.1759,-2.1759,-2.1758,-2.1763,-2.1764,-2.1764,0,0,0,0,0,0,0,0,0,0,0,0,0,-2.1746,-2.1738,-2.1761,-2.1758,-2.1757,-2.1767,-2.1767,-2.1767,-2.1759,-2.1759,-2.1759,-2.1758,-2.1763,-2.1764,-2.1764,-2.1777,0,0,-2.1766,-2.1766,0,0,0,0,0,0,0,0,-2.1746,-2.1747,-2.1758,-2.1758,-2.1758,-2.1762,-2.1761,-2.177,-2.176,-2.1759,-2.1758,-2.1758,-2.1763,-2.1764,-2.1766,-2.1777,-2.1777,-2.1766,-2.1766,-2.1767,-2.1767,0,0,0,0,0,0,0,-2.1745,-2.1747,-2.1763,-2.1758,-2.1758,-2.1755,-2.1755,-2.1763,-2.1763,-2.1759,-2.1758,-2.1759,-2.1763,-2.1765,-2.1766,-2.1777,-2.1766,-2.1767,-2.1767,-2.1767,-2.1796,-2.1797,0,0,0,0,0,0,-2.1745,-2.1746,-2.1763,-2.1763,-2.175,-2.1755,-2.1756,-2.1761,-2.1763,-2.1763,-2.1759,-2.1759,-2.1764,-2.1765,-2.1766,-2.1779,-2.1767,-2.1767,-2.1768,-2.1796,-2.1796,-2.1797,0,0,0,0,0,0,-2.1745,-2.1747,-2.1763,-2.1755,-2.1756,-2.1756,-2.1762,-2.1761,-2.1764,-2.1764,-2.1763,-2.1762,-2.1764,-2.1765,-2.1774,-2.1779,-2.1767,-2.1768,-2.1795,-2.1796,-2.1796,-2.1807,0,0,0,0,0,0,-2.1744,-2.1747,-2.1752,-2.1755,-2.1757,-2.1771,-2.1762,-2.1762,-2.1765,-2.1764,-2.1766,-2.1766,-2.1764,-2.1773,-2.1774,-2.178,-2.1768,-2.1795,-2.1796,-2.1796,-2.1806,-2.1808,-2.1809,0,0,0,0,0,-2.1743,-2.1755,-2.1753,-2.1755,-2.1764,-2.1772,-2.1773,-2.1771,-2.1766,-2.1771,-2.177,-2.1766,-2.1779,-2.1774,-2.1775,-2.1781,-2.1794,-2.1795,-2.1796,-2.1805,-2.1807,-2.1809,0,0,0,0,0,0,-2.1753,-2.1755,-2.1753,-2.1766,-2.1769,-2.1771,-2.1777,-2.1774,-2.1777,-2.1776,-2.1773,-2.1773,-2.1782,-2.1782,-2.1777,-2.1792,-2.1785,-2.1787,-2.1792,-2.1794,-2.1795,-2.1795,-2.1769,0,0,0,0,0,-2.1757,-2.1764,-2.1765,-2.1777,-2.1778,-2.1777,-2.1781,-2.1779,-2.1781,-2.1782,-2.1782,-2.1784,-2.1788,-2.1791,-2.1795,-2.1806,-2.1805,-2.181,-2.1812,-2.1813,-2.1814,-2.1818,-2.182,-2.18,-2.18,-2.18,0,0,-2.1765,-2.1767,-2.1772,-2.1779,-2.1781,-2.1786,-2.1778,-2.1786,-2.1789,-2.1783,-2.1791,-2.1791,-2.1792,-2.1802,-2.1806,-2.1802,-2.182,-2.1815,-2.1816,-2.1816,-2.1819,-2.1821,-2.1823,-2.18,-2.18,-2.18,0,0,-2.1782,-2.1785,-2.1794,-2.1796,-2.1799,-2.1798,-2.18,-2.1801,-2.1801,-2.1809,-2.1804,-2.1808,-2.1815,-2.1816,-2.1818,-2.1832,-2.1828,-2.1834,-2.1842,-2.1846,-2.1847,-2.1849,-2.1853,-2.1854,-2.1835,-2.1835,-2.1835,0,-2.1791,-2.1801,-2.1799,-2.1806,-2.1808,-2.1803,-2.181,-2.1812,-2.1816,-2.1817,-2.1813,-2.1821,-2.1822,-2.1831,-2.1834,-2.1836,-2.1837,-2.1834,-2.1848,-2.1849,-2.185,-2.1854,-2.1855,-2.1835,-2.1835,-2.1835,-2.1835,0,-2.1811,-2.1818,-2.1825,-2.1828,-2.1831,-2.1839,-2.1836,-2.184,-2.1837,-2.1836,-2.1842,-2.1843,-2.1846,-2.1848,-2.1845,-2.1855,-2.1853,-2.1848,-2.1841,-2.1853,-2.1856,-2.1858,-2.1836,-2.1836,-2.1836,-2.1836,0,0,-2.1836,-2.1837,-2.184,-2.184,-2.1842,-2.1846,-2.1853,-2.1856,-2.1858,-2.186,-2.1864,-2.187,-2.1865,-2.1867,-2.1864,-2.1867,-2.1877,-2.1862,-2.1862,-2.1864,-2.1886,-2.1889,-2.1891,-2.1874,-2.1874,-2.1874,-2.1885,0,-2.1852,-2.1864,-2.1861,-2.1872,-2.1876,-2.187,-2.1875,-2.1876,-2.1875,-2.1877,-2.1876,-2.1879,-2.1874,-2.1874,-2.1877,-2.1875,-2.1881,-2.1874,-2.1876,-2.1877,-2.1876,-2.1892,-2.1896,-2.1906,-2.1887,-2.1887,-2.1887,0,-2.1873,-2.1876,-2.1887,-2.1886,-2.1888,-2.1893,-2.1894,-2.1897,-2.1897,-2.1896,-2.1897,-2.1893,-2.1897,-2.189,-2.1895,-2.1891,-2.1891,-2.189,-2.189,-2.189,-2.1882,-2.1892,-2.191,-2.1911,-2.1889,-2.1889,-2.1889,0,-2.1888,-2.1894,-2.1901,-2.1902,-2.1902,-2.1905,-2.1905,-2.1904,-2.1906,-2.1907,-2.1907,-2.1909,-2.1909,-2.191,-2.1906,-2.1901,-2.1911,-2.1904,-2.1908,-2.1908,-2.191,-2.191,-2.1928,-2.1912,-2.1912,-2.1912,-2.1912,0,-2.1906,-2.1913,-2.1908,-2.1912,-2.1919,-2.1915,-2.1921,-2.192,-2.1919,-2.1922,-2.1917,-2.1919,-2.1914,-2.1916,-2.1912,-2.1916,-2.1917,-2.1915,-2.1913,-2.1915,-2.1915,-2.1915,-2.1914,-2.1912,-2.1912,-2.1912,-2.1912,0,-2.1924,-2.1921,-2.1928,-2.1927,-2.1926,-2.1931,-2.1929,-2.1932,-2.193,-2.1934,-2.1934,-2.193,-2.1932,-2.1928,-2.1929,-2.1926,-2.1931,-2.1929,-2.1931,-2.193,-2.1935,-2.1934,-2.1953,-2.1954,-2.1938,-2.1938,-2.1938,0,-2.1935,-2.194,-2.1939,-2.194,-2.194,-2.1943,-2.1944,-2.194,-2.1941,-2.194,-2.1943,-2.1944,-2.1945,-2.1947,-2.1943,-2.1943,-2.1941,-2.1947,-2.1941,-2.1941,-2.194,-2.1939,-2.1939,-2.1949,-2.1949,-2.1949,-2.1949,0,-2.1955,-2.1953,-2.1955,-2.1956,-2.1958,-2.1958,-2.1959,-2.196,-2.1955,-2.1956,-2.1958,-2.1958,-2.1958,-2.1959,-2.1958,-2.1956,-2.1951,-2.1951,-2.1952,-2.1953,-2.1954,-2.1952,-2.1934,-2.1951,-2.195,-2.195,-2.195,-2.195,-2.1969,-2.1972,-2.1971,-2.1973,-2.1973,-2.1973,-2.1975,-2.1973,-2.1974,-2.1974,-2.1971,-2.1973,-2.1971,-2.1969,-2.1968,-2.1968,-2.1965,-2.1966,-2.1967,-2.1967,-2.1967,-2.1954,-2.1968,-2.1968,-2.1968,-2.1968,-2.1968,0,-2.1987,-2.1986,-2.1988,-2.1988,-2.1989,-2.1985,-2.1984,-2.1985,-2.1987,-2.1985,-2.1986,-2.1986,-2.1986,-2.1982,-2.1982,-2.1982,-2.198,-2.1982,-2.1982,-2.1981,-2.1971,-2.197,-2.1984,-2.1984,-2.1984,-2.1984,-2.1984,-2.1984,-2.1997,-2.2002,-2.1999,-2.2003,-2.2002,-2.2003,-2.2003,-2.2002,-2.2001,-2.2002,-2.2002,-2.2,-2.1997,-2.1996,-2.1995,-2.1993,-2.1993,-2.1996,-2.1994,-2.1984,-2.1982,-2.1981,-2.198,-2.1996,-2.1996,-2.2004,-2.2004,-2.2004]}]]